Location: Niverville
(49.6028°N, 97.0419°W)
Time: 03:38:56
(UTC-06:00)

Amateur Radio Satellites - All Passes

Search period start: 28 November 2014 03:08
Search period end: 29 November 2014 03:08
Location: Niverville, 49.6028°N, 97.0419°W

Satellite Date Start Highest point End Downlink Frequencies (MHz)
Time Altitude Azimuth
AO-7 28 Nov 03:13:50 03:19:19 19° 86° (E) 03:24:45 29.400- 29.500
HORYU 2 28 Nov 03:15:49 03:19:52 32° 96° (E) 03:23:53 437.375
ISS 28 Nov 03:17:14 03:20:32 71° 12° (NNE) 03:23:50 145.825
MOZHAYETS 4 28 Nov 03:31:25 03:35:16 27° 63° (ENE) 03:39:09
BEESAT 3 28 Nov 03:31:56 03:35:58 43° 43° (NE) 03:39:58 437.485
PCSat 28 Nov 03:48:27 03:53:52 62° 50° (NE) 03:59:14 145.827
BEESAT 2 28 Nov 03:49:14 03:53:24 54° 45° (NE) 03:57:31 435.950
ITAMSAT 1 28 Nov 03:49:46 03:54:39 42° 294° (WNW) 03:59:29 435.822/435.867
PRISM 28 Nov 03:57:16 03:58:32 11° 54° (NE) 03:59:48 437.425
RS-15 28 Nov 04:03:01 04:07:32 13° 267° (W) 04:12:08 29.354- 29.394
SO-50 28 Nov 04:10:16 04:14:50 82° 128° (SE) 04:19:34 436.795
YUBILEINY 28 Nov 04:18:22 04:26:30 40° 294° (WNW) 04:34:40 435.215
AIST 2 28 Nov 04:33:52 04:38:12 71° 48° (NE) 04:42:28 435.215
Oscar 19 28 Nov 04:33:53 04:34:50 11° 311° (NW) 04:35:47 437.125/150
Gurwin Techsat 1B 28 Nov 04:35:28 04:40:05 31° 298° (WNW) 04:44:41 435.225
HORYU 2 28 Nov 04:52:30 04:56:33 34° 294° (WNW) 05:00:36 437.375
ISS 28 Nov 04:54:00 04:57:04 37° 211° (SSW) 05:00:08 145.825
AO-7 28 Nov 05:05:06 05:13:31 76° 108° (ESE) 05:21:53 29.400- 29.500
STRAND 1 28 Nov 05:07:41 05:11:48 25° 60° (ENE) 05:15:56 437.568
MOZHAYETS 4 28 Nov 05:07:57 05:12:19 43° 262° (W) 05:16:46
BEESAT 3 28 Nov 05:10:25 05:14:05 29° 242° (WSW) 05:17:42 437.485
O/OREOS (USA 219) 28 Nov 05:15:57 05:19:32 24° 104° (ESE) 05:23:07 437.305
JAS-2 28 Nov 05:17:40 05:24:29 45° 95° (E) 05:30:29 435.910
CUBESAT XI-V 28 Nov 05:19:16 05:23:14 27° 63° (ENE) 05:27:12 437.345
BEESAT 2 28 Nov 05:28:04 05:31:24 23° 245° (WSW) 05:34:42 435.950
PRISM 28 Nov 05:29:08 05:33:20 76° 73° (ENE) 05:37:36 437.425
PCSat 28 Nov 05:32:28 05:36:54 26° 250° (WSW) 05:41:20 145.827
CUTE-I 28 Nov 05:48:23 05:52:18 20° 90° (E) 05:56:10 437.470
AIST 1 28 Nov 05:51:47 05:55:33 27° 70° (ENE) 05:59:17
SO-50 28 Nov 05:52:06 05:55:57 25° 330° (NNW) 05:59:54 436.795
AIST 2 28 Nov 06:13:28 06:16:21 18° 248° (WSW) 06:19:13 435.215
GONETS M04 28 Nov 06:20:43 06:24:55 15° 69° (ENE) 06:29:08
YUBILEINY 28 Nov 06:24:29 06:26:32 11° 322° (NW) 06:28:36 435.215
STRAND 1 28 Nov 06:45:36 06:50:40 57° 259° (W) 06:55:45 437.568
Cubesat XI-IV 28 Nov 06:46:48 06:52:06 60° 102° (ESE) 06:57:20 437.490
O/OREOS (USA 219) 28 Nov 06:54:22 06:58:41 46° 303° (WNW) 07:03:01 437.305
CUBESAT XI-V 28 Nov 06:55:59 07:00:29 44° 262° (W) 07:05:02 437.345
AO-7 28 Nov 06:58:30 07:05:41 34° 309° (NW) 07:12:52 29.400- 29.500
JAS-2 28 Nov 07:02:47 07:09:31 43° 298° (WNW) 07:15:30 435.910
PRISM 28 Nov 07:07:27 07:09:26 13° 272° (W) 07:11:26 437.425
CUTE-I 28 Nov 07:27:35 07:32:53 67° 289° (WNW) 07:38:08 437.470
AIST 1 28 Nov 07:29:18 07:33:17 35° 269° (W) 07:37:14
SO-50 28 Nov 07:35:43 07:38:08 14° 355° (N) 07:40:35 436.795
GONETS M04 28 Nov 08:11:12 08:19:50 63° 92° (E) 08:28:31
CUTE 1.7 + AOD 2 28 Nov 08:14:13 08:15:56 12° 87° (E) 08:17:39 437.475
BRITE-PL 28 Nov 08:19:30 08:21:19 13° 88° (E) 08:23:08 437.365/2234.400
Cubesat XI-IV 28 Nov 08:27:34 08:31:49 25° 301° (WNW) 08:36:04 437.490
TIGRISAT 28 Nov 08:30:32 08:31:25 11° 54° (NE) 08:32:18 435.000
O/OREOS (USA 219) 28 Nov 08:38:44 08:39:17 10° 325° (NW) 08:39:50 437.305
HO-68 28 Nov 08:40:02 08:46:20 32° 94° (E) 08:52:35 435.675
SEEDS 28 Nov 08:42:52 08:46:05 20° 92° (E) 08:49:17 437.485
UNISAT 6 28 Nov 08:44:00 08:46:19 14° 57° (ENE) 08:48:37 437.425
JAS-2 28 Nov 08:50:06 08:52:37 12° 321° (NW) 08:55:03 435.910
AO-7 28 Nov 08:53:09 08:55:58 12° 334° (NNW) 08:58:48 29.400- 29.500
AAUSAT CUBESAT 2 28 Nov 08:54:37 08:57:48 20° 92° (E) 09:00:59 437.432
Oscar 11 28 Nov 08:59:28 09:01:23 13° 87° (E) 09:03:18 145.826/435.025
POLYITAN 1 28 Nov 09:01:49 09:04:17 15° 58° (ENE) 09:06:46 437.675
QB50P2 28 Nov 09:02:44 09:05:16 16° 59° (ENE) 09:07:48 145.880/145.840
DUCHIFAT 1 28 Nov 09:06:53 09:09:34 17° 59° (ENE) 09:12:16 145.980
CUTE-I 28 Nov 09:09:30 09:12:01 14° 309° (NW) 09:14:31 437.470
COMPASS 1 28 Nov 09:11:15 09:15:06 32° 96° (E) 09:18:56 437.405
ANTELSAT 28 Nov 09:11:39 09:15:07 25° 63° (ENE) 09:18:36 437.575/2403.000
CANX-2 28 Nov 09:13:52 09:18:04 49° 99° (E) 09:22:15 2200.000
GOMX 1 28 Nov 09:14:50 09:18:37 32° 96° (E) 09:22:27 467.674
SO-50 28 Nov 09:17:20 09:20:34 18° 19° (NNE) 09:23:50 436.795
NANOSAT C BR1 28 Nov 09:25:50 09:29:16 24° 63° (ENE) 09:32:41 145.865
DX 1 28 Nov 09:27:16 09:30:29 20° 92° (E) 09:33:40 434.975-435.025
UWE-3 28 Nov 09:29:21 09:31:29 14° 88° (E) 09:33:39 435.000/436.395/437.385
BUGSAT 1 28 Nov 09:33:20 09:36:45 24° 64° (ENE) 09:40:09 437.445
CUBEBUG 2 28 Nov 09:33:54 09:36:44 17° 91° (E) 09:39:36 437.445
QB50P1 28 Nov 09:35:47 09:39:28 29° 65° (ENE) 09:43:10 145.935-145.965
CUTE 1.7 + AOD 2 28 Nov 09:48:09 09:52:28 82° 285° (WNW) 09:56:46 437.475
BRITE-PL 28 Nov 09:56:16 10:00:24 72° 286° (WNW) 10:04:35 437.365/2234.400
ZACube-1 28 Nov 09:57:48 10:01:08 22° 93° (E) 10:04:30 437.345
DOVE 4 28 Nov 09:58:42 10:02:53 69° 102° (ESE) 10:07:10 437.250
POPSAT HIP 1 28 Nov 10:00:26 10:04:33 50° 70° (ENE) 10:08:40 437.405
TIGRISAT 28 Nov 10:03:10 10:07:24 73° 73° (ENE) 10:11:41 435.000
VELOX 1 28 Nov 10:08:25 10:11:29 18° 91° (E) 10:14:33 145.980
GONETS M04 28 Nov 10:09:12 10:17:13 37° 295° (WNW) 10:25:18
CINEMA 3 28 Nov 10:15:38 10:19:51 65° 102° (ESE) 10:24:10 145.822/145.860
SEEDS 28 Nov 10:18:03 10:22:11 48° 290° (WNW) 10:26:17 437.485
UNISAT 6 28 Nov 10:18:17 10:22:33 79° 256° (WSW) 10:26:52 437.425
DELFI C3 28 Nov 10:21:40 10:25:49 68° 102° (ESE) 10:29:57 145.870
UKube-1 28 Nov 10:24:26 10:28:47 69° 103° (ESE) 10:33:06 .
HO-68 28 Nov 10:27:25 10:34:30 63° 294° (WNW) 10:41:31 435.675
50 SAT 28 Nov 10:28:52 10:32:08 23° 93° (E) 10:35:24 437.505
AAUSAT CUBESAT 2 28 Nov 10:29:40 10:33:44 47° 290° (WNW) 10:37:48 437.432
FUNcube-1 28 Nov 10:31:37 10:35:43 46° 99° (E) 10:39:52 145.935
Oscar 11 28 Nov 10:33:46 10:38:09 81° 285° (WNW) 10:42:30 145.826/435.025
POLYITAN 1 28 Nov 10:35:30 10:39:45 74° 257° (WSW) 10:44:00 437.675
AISAT 28 Nov 10:35:40 10:39:41 33° 96° (E) 10:43:40 437.250
QB50P2 28 Nov 10:36:27 10:40:42 72° 257° (WSW) 10:44:58 145.880/145.840
CUBEBUG 1 28 Nov 10:39:54 10:42:24 15° 89° (E) 10:44:52 437.445
DUCHIFAT 1 28 Nov 10:40:47 10:45:00 66° 258° (WSW) 10:49:14 145.980
COMPASS 1 28 Nov 10:47:05 10:50:48 30° 294° (WNW) 10:54:30 437.405
ANTELSAT 28 Nov 10:47:44 10:51:46 40° 262° (W) 10:55:50 437.575/2403.000
CANX-2 28 Nov 10:50:28 10:53:43 21° 298° (WNW) 10:56:58 2200.000
GOMX 1 28 Nov 10:53:10 10:56:44 28° 294° (WNW) 11:00:20 467.674
HUMSAT D 28 Nov 10:57:07 11:01:13 52° 100° (E) 11:05:20 437.325/437.525
SO-50 28 Nov 10:57:32 11:02:14 48° 42° (NE) 11:06:59 436.795
Oscar 19 28 Nov 10:59:22 11:00:23 11° 49° (NE) 11:01:24 437.125/150
NANOSAT C BR1 28 Nov 11:00:56 11:04:58 41° 262° (W) 11:09:01 145.865
DX 1 28 Nov 11:02:48 11:07:01 50° 291° (WNW) 11:11:13 434.975-435.025
UWE-3 28 Nov 11:04:18 11:08:33 73° 286° (WNW) 11:12:52 435.000/436.395/437.385
BUGSAT 1 28 Nov 11:08:03 11:12:04 41° 262° (W) 11:16:05 437.445
CUBEBUG 2 28 Nov 11:09:38 11:13:48 57° 288° (WNW) 11:18:03 437.445
QB50P1 28 Nov 11:11:28 11:15:19 33° 264° (W) 11:19:11 145.935-145.965
CUTE 1.7 + AOD 2 28 Nov 11:26:04 11:27:42 12° 304° (NW) 11:29:21 437.475
ZACube-1 28 Nov 11:33:42 11:37:43 43° 290° (WNW) 11:41:48 437.345
TISAT 1 28 Nov 11:35:14 11:37:35 15° 89° (E) 11:39:56 437.305
POPSAT HIP 1 28 Nov 11:37:39 11:40:45 19° 268° (W) 11:43:50 437.405
DOVE 4 28 Nov 11:37:47 11:40:14 15° 301° (WNW) 11:42:43 437.250
TIGRISAT 28 Nov 11:42:38 11:44:43 13° 272° (W) 11:46:48 435.000
VELOX 1 28 Nov 11:44:06 11:48:28 57° 289° (WNW) 11:52:47 145.980
ESTCUBE 1 28 Nov 11:51:58 11:56:33 75° 103° (ESE) 12:01:04 437.505/2401.250
SPROUT 28 Nov 11:52:43 11:55:54 20° 91° (E) 11:59:03 437.525
CINEMA 3 28 Nov 11:53:59 11:56:40 17° 300° (WNW) 11:59:23 145.822/145.860
ITAMSAT 1 28 Nov 11:56:27 11:59:07 14° 52° (NE) 12:01:47 435.822/435.867
DELFI C3 28 Nov 11:58:11 12:00:39 16° 301° (WNW) 12:03:08 145.870
UKube-1 28 Nov 12:01:42 12:04:29 17° 302° (WNW) 12:07:16 .
50 SAT 28 Nov 12:03:48 12:07:35 39° 291° (WNW) 12:11:23 437.505
FUNcube-1 28 Nov 12:08:34 12:11:51 22° 297° (WNW) 12:15:10 145.935
Oscar 11 28 Nov 12:11:55 12:13:37 12° 304° (NW) 12:15:18 145.826/435.025
AISAT 28 Nov 12:12:22 12:16:18 32° 295° (WNW) 12:20:12 437.250
CUBEBUG 1 28 Nov 12:14:55 12:19:17 69° 287° (WNW) 12:23:35 437.445
HO-68 28 Nov 12:16:30 12:20:54 18° 316° (NW) 12:25:17 435.675
GONETS M04 28 Nov 12:16:55 12:17:31 10° 324° (NW) 12:18:08
CUSAT 1 28 Nov 12:24:54 12:26:37 16° 91° (E) 12:28:24 437.405
YUBILEINY 28 Nov 12:25:26 12:33:21 36° 64° (ENE) 12:41:10 435.215
AO-7 28 Nov 12:30:09 12:34:04 14° 30° (NNE) 12:37:58 29.400- 29.500
Oscar 19 28 Nov 12:33:41 12:38:39 54° 69° (ENE) 12:43:40 437.125/150
HUMSAT D 28 Nov 12:33:44 12:36:43 19° 298° (WNW) 12:39:43 437.325/437.525
SO-50 28 Nov 12:38:20 12:42:43 34° 242° (WSW) 12:47:07 436.795
BEESAT 28 Nov 12:39:31 12:41:24 12° 86° (E) 12:43:16 436.000
Gurwin Techsat 1B 28 Nov 12:42:48 12:46:35 20° 57° (ENE) 12:50:23 435.225
UWE-3 28 Nov 12:43:31 12:44:23 11° 305° (NW) 12:45:14 435.000/436.395/437.385
AUBIESAT-1 28 Nov 12:54:56 12:57:55 16° 93° (E) 13:00:51 437.475
M-CUBED/EXP-1 PRIME 28 Nov 13:01:40 13:05:16 20° 95° (E) 13:08:47 437.505
DANDE 28 Nov 13:01:54 13:04:24 42° 98° (E) 13:06:57 436.750
TISAT 1 28 Nov 13:09:42 13:13:54 66° 287° (WNW) 13:18:04 437.305
SPROUT 28 Nov 13:28:07 13:32:16 49° 290° (WNW) 13:36:23 437.525
ESTCUBE 1 28 Nov 13:30:01 13:32:54 17° 302° (WNW) 13:35:45 437.505/2401.250
ITAMSAT 1 28 Nov 13:32:33 13:37:45 73° 72° (ENE) 13:42:58 435.822/435.867
ITUPSAT 1 28 Nov 13:35:00 13:39:29 37° 97° (E) 13:43:55 437.325
O/OREOS (USA 219) 28 Nov 13:42:01 13:45:02 18° 44° (NE) 13:48:04 437.305
SWISSCUBE 28 Nov 13:44:45 13:49:26 49° 100° (E) 13:54:04 437.505
CUBEBUG 1 28 Nov 13:53:58 13:54:50 11° 307° (NW) 13:55:43 437.445
JAS-2 28 Nov 13:54:22 13:56:46 12° 38° (NE) 13:59:10 435.910
KKS-1 28 Nov 13:58:36 14:01:13 15° 89° (E) 14:03:50 437.445
CUSAT 1 28 Nov 14:08:00 14:09:42 16° 294° (WNW) 14:11:29 437.405
RS-15 28 Nov 14:09:40 14:15:39 17° 96° (E) 14:21:37 29.354- 29.394
Oscar 19 28 Nov 14:14:14 14:18:20 24° 268° (W) 14:22:28 437.125/150
BEESAT 28 Nov 14:15:09 14:20:00 86° 105° (ESE) 14:24:48 436.000
AO-7 28 Nov 14:17:07 14:24:40 41° 55° (NE) 14:32:16 29.400- 29.500
HORYU 2 28 Nov 14:18:34 14:22:51 50° 69° (ENE) 14:27:10 437.375
Gurwin Techsat 1B 28 Nov 14:20:41 14:26:00 77° 256° (WSW) 14:31:21 435.225
YUBILEINY 28 Nov 14:22:10 14:30:43 63° 268° (W) 14:39:13 435.215
AUBIESAT-1 28 Nov 14:28:32 14:33:29 83° 292° (WNW) 14:38:19 437.475
M-CUBED/EXP-1 PRIME 28 Nov 14:35:47 14:40:43 68° 294° (WNW) 14:45:32 437.505
STARS 28 Nov 14:47:37 14:51:32 30° 96° (E) 14:55:25 437.465
MaSat-1 28 Nov 14:50:12 14:52:47 34° 116° (ESE) 14:55:12 437.345
VERMONT LUNAR 28 Nov 15:12:27 15:14:58 18° 171° (S) 15:17:29 437.305
ITUPSAT 1 28 Nov 15:13:02 15:17:19 33° 296° (WNW) 15:21:34 437.325
PHONESAT 2.4 28 Nov 15:13:04 15:15:31 17° 167° (SSE) 15:17:58 2401.200-2431.200
ITAMSAT 1 28 Nov 15:14:15 15:17:48 18° 271° (W) 15:21:23 435.822/435.867
O/OREOS (USA 219) 28 Nov 15:20:34 15:25:04 83° 245° (WSW) 15:29:33 437.305
SWISSCUBE 28 Nov 15:23:07 15:27:03 25° 299° (WNW) 15:30:56 437.505
JAS-2 28 Nov 15:32:45 15:39:46 38° 60° (ENE) 15:46:46 435.910
KKS-1 28 Nov 15:33:56 15:38:22 69° 288° (WNW) 15:42:46 437.445
CUTE-I 28 Nov 15:39:37 15:40:29 10° 47° (NE) 15:41:21 437.470
BEESAT 28 Nov 15:54:19 15:57:13 16° 304° (NW) 16:00:07 436.000
HORYU 2 28 Nov 15:56:28 15:59:49 21° 268° (W) 16:03:12 437.375
AUBIESAT-1 28 Nov 16:04:42 16:07:45 17° 310° (NW) 16:10:47 437.475
Gurwin Techsat 1B 28 Nov 16:04:45 16:06:52 12° 275° (W) 16:08:59 435.225
AO-7 28 Nov 16:09:01 16:17:11 61° 256° (WSW) 16:25:27 29.400- 29.500
M-CUBED/EXP-1 PRIME 28 Nov 16:12:21 16:14:55 14° 313° (NW) 16:17:27 437.505
RS-15 28 Nov 16:14:53 16:25:36 65° 119° (ESE) 16:36:22 29.354- 29.394
YUBILEINY 28 Nov 16:21:33 16:25:38 14° 291° (WNW) 16:29:43 435.215
GONETS M04 28 Nov 16:21:55 16:24:07 11° 38° (NE) 16:26:18
STARS 28 Nov 16:24:05 16:28:02 33° 294° (WNW) 16:31:59 437.465
MaSat-1 28 Nov 16:25:48 16:27:20 14° 312° (NW) 16:28:48 437.345
Cubesat XI-IV 28 Nov 16:34:39 16:39:03 27° 60° (ENE) 16:43:27 437.490
VERMONT LUNAR 28 Nov 16:50:10 16:52:43 18° 188° (S) 16:55:15 437.305
PHONESAT 2.4 28 Nov 16:50:49 16:53:34 20° 184° (S) 16:56:20 2401.200-2431.200
MOZHAYETS 4 28 Nov 16:58:45 17:03:01 34° 96° (E) 17:07:15
O/OREOS (USA 219) 28 Nov 17:02:41 17:03:40 11° 263° (W) 17:04:40 437.305
KKS-1 28 Nov 17:13:03 17:14:12 11° 307° (NW) 17:15:20 437.445
CUTE-I 28 Nov 17:14:13 17:19:23 50° 68° (ENE) 17:24:33 437.470
JAS-2 28 Nov 17:16:44 17:24:26 63° 260° (W) 17:32:12 435.910
HO-68 28 Nov 17:31:43 17:33:54 12° 35° (NE) 17:36:04 435.675
AO-7 28 Nov 18:08:14 18:11:49 13° 278° (W) 18:15:26 29.400- 29.500
Cubesat XI-IV 28 Nov 18:13:33 18:18:49 57° 259° (W) 18:24:07 437.490
GONETS M04 28 Nov 18:16:00 18:24:14 40° 66° (ENE) 18:32:21
RS-15 28 Nov 18:27:46 18:38:23 54° 327° (NNW) 18:49:13 29.354- 29.394
AIST 1 28 Nov 18:28:03 18:30:08 13° 82° (E) 18:32:14
PHONESAT 2.4 28 Nov 18:30:08 18:31:32 12° 201° (SSW) 18:32:56 2401.200-2431.200
PCSat 28 Nov 18:35:51 18:39:53 22° 108° (ESE) 18:43:56 145.827
MOZHAYETS 4 28 Nov 18:36:03 18:40:14 33° 294° (WNW) 18:44:24
PRISM 28 Nov 18:43:39 18:47:55 70° 103° (ESE) 18:52:07 437.425
CUBESAT XI-V 28 Nov 18:48:29 18:52:46 35° 96° (E) 18:57:00 437.345
STRAND 1 28 Nov 18:51:51 18:56:32 35° 96° (E) 19:01:10 437.568
CUTE-I 28 Nov 18:55:09 18:59:42 28° 266° (W) 19:04:16 437.470
JAS-2 28 Nov 19:06:57 19:10:56 15° 280° (W) 19:14:57 435.910
BEESAT 3 28 Nov 19:10:03 19:12:55 18° 113° (ESE) 19:15:48 437.485
CUTE 1.7 + AOD 2 28 Nov 19:11:31 19:14:12 17° 60° (ENE) 19:16:53 437.475
HO-68 28 Nov 19:13:11 19:19:43 40° 58° (ENE) 19:26:16 435.675
BEESAT 2 28 Nov 19:27:25 19:30:46 24° 116° (ESE) 19:34:09 435.950
DOVE 4 28 Nov 19:33:24 19:36:03 16° 60° (ENE) 19:38:39 437.250
BRITE-PL 28 Nov 19:33:47 19:37:47 28° 66° (ENE) 19:41:34 437.365/2234.400
SEEDS 28 Nov 19:39:41 19:43:09 26° 64° (ENE) 19:46:39 437.485
DELFI C3 28 Nov 19:43:09 19:44:06 11° 55° (NE) 19:45:03 145.870
CINEMA 3 28 Nov 19:47:34 19:49:40 14° 58° (ENE) 19:51:46 145.822/145.860
UKube-1 28 Nov 19:50:01 19:52:30 15° 57° (ENE) 19:54:59 .
AAUSAT CUBESAT 2 28 Nov 19:50:24 19:53:49 25° 64° (ENE) 19:57:16 437.432
Oscar 11 28 Nov 19:58:23 20:01:20 18° 60° (ENE) 20:04:19 145.826/435.025
AIST 1 28 Nov 20:02:46 20:07:11 75° 281° (W) 20:11:38
COMPASS 1 28 Nov 20:07:16 20:11:10 39° 69° (ENE) 20:15:06 437.405
CANX-2 28 Nov 20:11:14 20:15:24 62° 72° (ENE) 20:19:36 2200.000
GONETS M04 28 Nov 20:12:52 20:21:27 58° 269° (W) 20:29:57
AIST 2 28 Nov 20:14:49 20:18:41 35° 119° (ESE) 20:22:37 435.215
PCSat 28 Nov 20:17:21 20:22:46 73° 308° (NW) 20:28:13 145.827
PRISM 28 Nov 20:20:21 20:22:58 16° 302° (WNW) 20:25:35 437.425
CUBESAT XI-V 28 Nov 20:26:01 20:30:11 33° 295° (WNW) 20:34:18 437.345
DX 1 28 Nov 20:26:59 20:30:51 31° 65° (ENE) 20:34:43 434.975-435.025
GOMX 1 28 Nov 20:27:14 20:31:46 61° 73° (ENE) 20:36:04 467.674
STRAND 1 28 Nov 20:31:03 20:35:46 38° 295° (WNW) 20:40:26 437.568
UWE-3 28 Nov 20:31:04 20:34:05 20° 62° (ENE) 20:37:06 435.000/436.395/437.385
CUBEBUG 2 28 Nov 20:36:49 20:40:14 25° 64° (ENE) 20:43:38 437.445
RS-15 28 Nov 20:43:45 20:53:41 37° 360° (N) 21:03:52 29.354- 29.394
CUTE 1.7 + AOD 2 28 Nov 20:45:29 20:49:40 66° 259° (WSW) 20:53:55 437.475
BEESAT 3 28 Nov 20:46:36 20:50:43 65° 312° (NW) 20:54:54 437.485
ZACube-1 28 Nov 20:58:28 21:02:07 30° 66° (ENE) 21:05:45 437.345
HO-68 28 Nov 21:00:14 21:07:15 54° 259° (W) 21:14:18 435.675
BEESAT 2 28 Nov 21:04:45 21:08:48 51° 315° (NW) 21:12:56 435.950
DOVE 4 28 Nov 21:08:58 21:13:25 70° 258° (WSW) 21:17:41 437.250
VELOX 1 28 Nov 21:10:24 21:14:15 29° 64° (ENE) 21:18:07 145.980
BRITE-PL 28 Nov 21:11:42 21:16:13 40° 262° (W) 21:20:28 437.365/2234.400
DELFI C3 28 Nov 21:14:36 21:18:41 78° 74° (ENE) 21:22:48 145.870
SEEDS 28 Nov 21:14:57 21:18:51 38° 263° (W) 21:22:49 437.485
ESTCUBE 1 28 Nov 21:21:10 21:24:09 18° 58° (ENE) 21:27:09 437.505/2401.250
CINEMA 3 28 Nov 21:22:04 21:26:22 81° 256° (WSW) 21:30:35 145.822/145.860
50 SAT 28 Nov 21:22:09 21:25:34 27° 65° (ENE) 21:28:59 437.505
UKube-1 28 Nov 21:23:45 21:28:06 80° 256° (WSW) 21:32:30 .
AAUSAT CUBESAT 2 28 Nov 21:25:28 21:29:21 38° 263° (W) 21:33:18 437.432
FUNcube-1 28 Nov 21:32:04 21:36:11 63° 72° (ENE) 21:40:18 145.935
Oscar 11 28 Nov 21:32:51 21:37:07 60° 259° (W) 21:41:25 145.826/435.025
AISAT 28 Nov 21:38:01 21:42:21 52° 70° (ENE) 21:46:42 437.250
CUBEBUG 1 28 Nov 21:40:14 21:43:44 23° 62° (ENE) 21:47:14 437.445
COMPASS 1 28 Nov 21:43:41 21:47:04 23° 267° (W) 21:50:28 437.405
AIST 1 28 Nov 21:44:55 21:45:43 10° 301° (WNW) 21:46:30
CANX-2 28 Nov 21:49:13 21:51:46 16° 271° (W) 21:54:21 2200.000
TIGRISAT 28 Nov 21:52:40 21:54:08 11° 87° (E) 21:55:37 435.000
AIST 2 28 Nov 21:53:18 21:57:18 38° 319° (NW) 22:01:23 435.215
HUMSAT D 28 Nov 21:53:44 21:57:49 66° 73° (ENE) 22:01:55 437.325/437.525
DANDE 28 Nov 21:55:18 21:56:05 10° 62° (ENE) 21:56:54 436.750
PCSat 28 Nov 22:02:58 22:07:07 22° 330° (NNW) 22:11:16 145.827
DX 1 28 Nov 22:03:06 22:07:04 33° 263° (W) 22:11:03 434.975-435.025
UWE-3 28 Nov 22:06:16 22:10:21 50° 260° (W) 22:14:25 435.000/436.395/437.385
UNISAT 6 28 Nov 22:06:59 22:09:49 16° 90° (E) 22:12:41 437.425
GOMX 1 28 Nov 22:07:19 22:10:17 17° 269° (W) 22:13:09 467.674
GONETS M04 28 Nov 22:12:47 22:16:12 13° 292° (WNW) 22:19:36
CUBEBUG 2 28 Nov 22:12:53 22:16:49 38° 262° (W) 22:20:44 437.445
POLYITAN 1 28 Nov 22:18:37 22:20:50 14° 89° (E) 22:23:03 437.675
QB50P2 28 Nov 22:19:18 22:21:35 14° 89° (E) 22:23:52 145.880/145.840
DUCHIFAT 1 28 Nov 22:23:05 22:25:33 15° 89° (E) 22:28:00 145.980
BEESAT 3 28 Nov 22:26:56 22:29:44 17° 334° (NNW) 22:32:33 437.485
TISAT 1 28 Nov 22:32:01 22:35:14 21° 62° (ENE) 22:38:26 437.305
ZACube-1 28 Nov 22:34:46 22:38:29 31° 264° (W) 22:42:12 437.345
ANTELSAT 28 Nov 22:35:20 22:39:16 30° 95° (E) 22:43:16 437.575/2403.000
NANOSAT C BR1 28 Nov 22:42:21 22:45:45 23° 93° (E) 22:49:09 145.865
BEESAT 2 28 Nov 22:45:32 22:48:03 15° 338° (NNW) 22:50:35 435.950
VELOX 1 28 Nov 22:46:37 22:50:45 37° 263° (W) 22:54:55 145.980
BUGSAT 1 28 Nov 22:46:55 22:50:02 21° 92° (E) 22:53:07 437.445
MaSat-1 28 Nov 22:50:11 22:51:37 15° 48° (NE) 22:53:03 437.345
SPROUT 28 Nov 22:51:14 22:54:54 28° 65° (ENE) 22:58:34 437.525
QB50P1 28 Nov 22:52:30 22:56:13 29° 95° (E) 22:59:54 145.935-145.965
DELFI C3 28 Nov 22:53:01 22:54:33 12° 273° (W) 22:56:05 145.870
CUSAT 1 28 Nov 22:55:37 22:59:58 39° 73° (ENE) 23:05:38 437.405
ESTCUBE 1 28 Nov 22:55:59 23:00:32 72° 257° (WSW) 23:05:07 437.505/2401.250
HO-68 28 Nov 22:56:06 22:56:39 10° 280° (W) 22:57:13 435.675
50 SAT 28 Nov 22:57:11 23:00:48 32° 264° (W) 23:04:27 437.505
RS-15 28 Nov 22:58:14 23:09:02 53° 32° (NNE) 23:20:14 29.354- 29.394
FUNcube-1 28 Nov 23:10:36 23:12:59 15° 271° (W) 23:15:23 145.935
ITUPSAT 1 28 Nov 23:11:51 23:13:48 12° 52° (NE) 23:15:45 437.325
ISS 28 Nov 23:14:18 23:17:18 33° 148° (SSE) 23:20:18 145.825
CUBEBUG 1 28 Nov 23:15:34 23:19:52 48° 261° (W) 23:24:10 437.445
AISAT 28 Nov 23:15:58 23:19:18 20° 268° (W) 23:22:38 437.250
POPSAT HIP 1 28 Nov 23:17:30 23:21:39 51° 100° (E) 23:25:45 437.405
SWISSCUBE 28 Nov 23:20:29 23:23:17 16° 55° (NE) 23:26:06 437.505
TIGRISAT 28 Nov 23:27:05 23:31:32 88° 105° (ESE) 23:36:05 435.000
HUMSAT D 28 Nov 23:31:56 23:34:06 14° 271° (W) 23:36:16 437.325/437.525
AIST 2 28 Nov 23:34:51 23:37:06 14° 342° (NNW) 23:39:22 435.215
DANDE 28 Nov 23:35:32 23:39:59 69° 77° (ENE) 23:46:03 436.750
UNISAT 6 28 Nov 23:42:37 23:47:03 66° 288° (WNW) 23:51:33 437.425
AUBIESAT-1 28 Nov 23:47:38 23:51:37 36° 60° (ENE) 23:55:53 437.475
BEESAT 28 Nov 23:49:33 23:53:23 24° 61° (ENE) 23:57:14 436.000
PCSat 28 Nov 23:50:27 23:52:41 12° 356° (N) 23:54:55 145.827
POLYITAN 1 28 Nov 23:53:04 23:57:18 70° 287° (WNW) 00:01:30 437.675
QB50P2 28 Nov 23:53:47 23:58:00 69° 287° (WNW) 00:02:13 145.880/145.840
M-CUBED/EXP-1 PRIME 28 Nov 23:55:00 23:59:06 45° 62° (ENE) 00:03:34 437.505
DUCHIFAT 1 28 Nov 23:57:41 00:01:52 64° 288° (WNW) 00:06:02 145.980
TISAT 1 29 Nov 00:06:39 00:10:47 49° 260° (W) 00:14:56 437.305
BEESAT 3 29 Nov 00:09:26 00:09:39 10° 358° (N) 00:09:51 437.485
ANTELSAT 29 Nov 00:12:04 00:16:08 36° 293° (WNW) 00:20:17 437.575/2403.000
NANOSAT C BR1 29 Nov 00:17:51 00:21:49 40° 292° (WNW) 00:25:46 145.865
BUGSAT 1 29 Nov 00:21:53 00:25:46 42° 291° (WNW) 00:29:35 437.445
MaSat-1 29 Nov 00:24:11 00:26:03 21° 246° (WSW) 00:27:56 437.345
SPROUT 29 Nov 00:26:54 00:30:53 36° 263° (W) 00:34:54 437.525
BEESAT 2 29 Nov 00:27:40 00:28:06 10° 2° (N) 00:28:31 435.950
QB50P1 29 Nov 00:28:21 00:32:09 33° 294° (WNW) 00:35:55 145.935-145.965
CUSAT 1 29 Nov 00:38:48 00:43:05 33° 265° (W) 00:48:34 437.405
Oscar 19 29 Nov 00:42:21 00:44:55 14° 86° (E) 00:47:30 437.125/150
ITUPSAT 1 29 Nov 00:46:03 00:50:51 70° 72° (ENE) 00:55:40 437.325
ISS 29 Nov 00:50:30 00:53:47 74° 347° (NNW) 00:57:05 145.825
POPSAT HIP 1 29 Nov 00:54:09 00:57:15 20° 299° (WNW) 01:00:20 437.405
SWISSCUBE 29 Nov 00:55:40 01:00:30 89° 255° (WSW) 01:05:21 437.505
KKS-1 29 Nov 01:00:55 01:04:31 25° 63° (ENE) 01:08:08 437.445
TIGRISAT 29 Nov 01:05:25 01:07:42 14° 303° (WNW) 01:10:01 435.000
RS-15 29 Nov 01:10:59 01:22:01 68° 239° (WSW) 01:33:32 29.354- 29.394
AIST 2 29 Nov 01:16:21 01:17:35 11° 7° (N) 01:18:49 435.215
DANDE 29 Nov 01:20:08 01:23:20 18° 269° (W) 01:27:08 436.750
UNISAT 6 29 Nov 01:22:16 01:23:02 10° 306° (NW) 01:23:49 437.425
AUBIESAT-1 29 Nov 01:22:49 01:26:38 32° 260° (W) 01:30:47 437.475
BEESAT 29 Nov 01:26:16 01:30:56 52° 260° (W) 01:35:40 436.000
M-CUBED/EXP-1 PRIME 29 Nov 01:30:50 01:34:23 25° 262° (W) 01:38:11 437.505
POLYITAN 1 29 Nov 01:31:56 01:32:28 10° 306° (NW) 01:33:00 437.675
YUBILEINY 29 Nov 01:32:41 01:40:16 34° 82° (E) 01:47:50 435.215
QB50P2 29 Nov 01:32:51 01:33:08 10° 306° (NW) 01:33:26 145.880/145.840
PCSat 29 Nov 01:34:52 01:38:26 17° 23° (NNE) 01:41:59 145.827
ITAMSAT 1 29 Nov 01:42:00 01:45:35 19° 89° (E) 01:49:07 435.822/435.867
BEESAT 3 29 Nov 01:47:07 01:49:38 15° 23° (NNE) 01:52:08 437.485
STARS 29 Nov 01:48:59 01:53:12 47° 69° (ENE) 01:57:25 437.465
BEESAT 2 29 Nov 02:05:13 02:08:04 17° 26° (NNE) 02:10:55 435.950
Oscar 19 29 Nov 02:19:50 02:25:02 87° 105° (ESE) 02:30:14 437.125/150
ITUPSAT 1 29 Nov 02:26:06 02:29:15 17° 271° (W) 02:32:26 437.325
ISS 29 Nov 02:27:22 02:30:38 61° 7° (N) 02:33:54 145.825
Gurwin Techsat 1B 29 Nov 02:32:45 02:37:27 31° 94° (E) 02:42:06 435.225
KKS-1 29 Nov 02:36:43 02:40:58 44° 261° (W) 02:45:14 437.445
SWISSCUBE 29 Nov 02:36:54 02:39:05 13° 273° (W) 02:41:16 437.505
AIST 2 29 Nov 02:54:25 02:57:48 22° 30° (NNE) 03:01:09 435.215
SO-50 29 Nov 02:57:11 03:01:05 29° 117° (ESE) 03:05:06 436.795
